Weather History for Palm Springs, CA

Change the Weather History Date:

Saturday, June 29, 2013

  Actual Average Record
Temperature  
Mean Temperature 103 °F 90 °F  
Max Temperature 122 °F 106 °F 122 °F (2013)
Min Temperature 84 °F 75 °F 51 °F (1955)
Degree Days  
Heating Degree Days 0 0  
Month to date heating degree days 0 0  
Since 1 June heating degree days 0 0  
Since 1 July heating degree days 760 874  
Cooling Degree Days 38 25  
Month to date cooling degree days 712 622  
Year to date cooling degree days 1754 1381  
Since 1 June cooling degree days 712 622  
Growing Degree Days 52 (Base 50)    
Moisture  
Dew Point 48 °F    
Average Humidity 22    
Maximum Humidity 37    
Minimum Humidity 6    
Precipitation  
Precipitation 0.00 in 0.01 in 0.00 in (2015)
Month to date precipitation 0.00 0.06  
Year to date precipitation 0.97 2.94  
Since 1 July precipitation 2.19 5.74  
Snow  
Snow 0.00 in - - ()
Month to date snowfall 0.0  
Year to date snowfall 0.0  
Since 1 July snowfall 0.0  
Snow Depth 0.00 in    
Sea Level Pressure  
Sea Level Pressure 29.66 in    
Wind  
Wind Speed 4 mph (North)    
Max Wind Speed 16 mph    
Max Gust Speed 24 mph    
Visibility 10 miles    
Events      
T = Trace of Precipitation, MM = Missing Value Source: NWS Daily Summary

Daily Weather History Graph

Daily Weather History Graph

Search for Another Location

Airport:

Trip Planner

Search our weather history database for the weather conditions in past years. The results will help you decide how hot, cold, wet, or windy it might be!

Date:

Astronomy

Jun. 29, 2013 Rise Set
Actual Time 5:38 AM PDT 8:00 PM PDT
Civil Twilight 5:09 AM PDT 8:29 PM PDT
Nautical Twilight 4:33 AM PDT 9:05 PM PDT
Astronomical Twilight 3:54 AM PDT 9:44 PM PDT
Moon No Moon Rise 12:33 PM PDT (6/29)
Length of Visible Light 15h 20m
Length of Day
14h 22m
Waning Gibbous, 54% of the Moon is Illuminated
Jun 29
Waning Gibbous
Jun 29
Last Quarter
Jul 8
New
Jul 15
First Quarter
Jul 22
Full

Hourly Weather History & Observations

Time (PDT) Temp. Heat Index Dew Point Humidity Pressure Visibility Wind Dir Wind Speed Gust Speed Precip Events Conditions
12:53 AM 93.0 °F - 51.1 °F 24% 29.71 in 10.0 mi Calm Calm - N/A   Clear
1:53 AM 90.0 °F 87.7 °F 54.0 °F 29% 29.70 in 10.0 mi South 3.5 mph - N/A   Clear
2:53 AM 90.0 °F 87.9 °F 55.0 °F 30% 29.70 in 10.0 mi Calm Calm - N/A   Clear
3:53 AM 87.1 °F 85.1 °F 54.0 °F 32% 29.68 in 10.0 mi Calm Calm - N/A   Clear
4:53 AM 86.0 °F 84.7 °F 55.9 °F 36% 29.68 in 10.0 mi Calm Calm - N/A   Clear
5:53 AM 88.0 °F 85.9 °F 54.0 °F 31% 29.69 in 10.0 mi Variable 3.5 mph - N/A   Clear
6:53 AM 84.9 °F 83.7 °F 55.9 °F 37% 29.70 in 10.0 mi Calm Calm - N/A   Scattered Clouds
7:53 AM 91.9 °F 89.5 °F 53.1 °F 27% 29.70 in 10.0 mi Calm Calm - N/A   Scattered Clouds
8:53 AM 96.1 °F - 52.0 °F 22% 29.70 in 10.0 mi South 4.6 mph - N/A   Scattered Clouds
9:53 AM 102.9 °F - 48.9 °F 16% 29.70 in 10.0 mi NW 3.5 mph - N/A   Scattered Clouds
10:53 AM 109.0 °F - 37.9 °F 9% 29.69 in 10.0 mi Calm Calm - N/A   Scattered Clouds
11:53 AM 115.0 °F - 37.0 °F 7% 29.68 in 10.0 mi Calm Calm - N/A   Scattered Clouds
12:53 PM 118.9 °F - 33.1 °F 6% 29.65 in 10.0 mi North 6.9 mph - N/A   Scattered Clouds
1:53 PM 118.9 °F - 32.0 °F 5% 29.64 in 10.0 mi Variable 5.8 mph - N/A   Scattered Clouds
2:53 PM 118.9 °F - 33.1 °F 6% 29.62 in 10.0 mi Variable 4.6 mph - N/A   Clear
3:53 PM 120.0 °F - 36.0 °F 6% 29.60 in 10.0 mi NW 16.1 mph 20.7 mph N/A   Clear
4:53 PM 120.0 °F - 37.0 °F 6% 29.58 in 10.0 mi NW 13.8 mph 24.2 mph N/A   Clear
5:53 PM 118.0 °F - 37.9 °F 7% 29.57 in 10.0 mi NW 8.1 mph 21.9 mph N/A   Clear
6:53 PM 114.1 °F - 41.0 °F 9% 29.58 in 10.0 mi SE 10.4 mph - N/A   Clear
7:53 PM 111.0 °F - 46.0 °F 11% 29.60 in 10.0 mi ESE 16.1 mph - N/A   Clear
8:53 PM 102.0 °F 103.3 °F 61.0 °F 26% 29.64 in 10.0 mi SE 5.8 mph - N/A   Clear
9:53 PM 100.0 °F 101.2 °F 61.0 °F 28% 29.67 in 10.0 mi NNE 4.6 mph - N/A   Clear
10:53 PM 98.1 °F 99.1 °F 62.1 °F 30% 29.70 in 10.0 mi North 5.8 mph - N/A   Clear
11:53 PM 97.0 °F 96.9 °F 60.1 °F 29% 29.70 in 10.0 mi NNE 3.5 mph - N/A   Clear